Home > Weather > Concord > Past weeks

Flag for USA Past Weather in Concord, California, USA — Yesterday and Last 2 Weeks

Now
58 °F

Clear.


Feels Like: 58 °F
Forecast: 57 / 88 °F
Wind: 3 mph from Northwest

Location: Buchanan Field

Current Time: Jun 29, 2016 at 5:45:22 AM

Latest Report: Jun 29, 2016 at 4:53 AM


Visibility: 9 mi

Pressure: 29.86 "Hg

Humidity: 78%

Dew Point: 51 °F

Location of ConcordLocation

Past Weather in Concord — Graph

°F

Concord Temperature Yesterday

Maximum temperature yesterday: 98 °F (at 3:53 PM)
Minimum temperature yesterday: 62 °F (at 5:53 AM)
Average temperature yesterday: 79 °F

High & Low Weather Summary for the Past Weeks

 TemperatureHumidityPressure
High101 °F (Jun 27, 3:53 PM)81% (Jun 24, 5:53 AM)30.15 "Hg (Jun 24, 5:53 AM)
Low54 °F (Jun 15, 3:53 AM)8% (Jun 20, 3:53 PM)29.83 "Hg (Jun 28, 6:53 PM)
Average72 °F44%29.95 "Hg
* Reported Jun 14 3:53 AM — Jun 29 3:53 AM, Concord, Weather by CustomWeather, © 2016

Note: Actual official high and low records may vary slightly from our data, if they occured in-between our weather recording intervals... More about our weather records

Advertising

Concord Weather History for the Previous 24 Hours

Scroll right to see more
 ConditionsComfort  
Time TempWeatherWind HumidityBarometerVisibility
3:53 AM
Wed, Jun 29
59 °FClear.3 mph78%29.85 "Hg9 mi
2:53 AM58 °FClear.6 mph81%29.85 "Hg8 mi
1:53 AM62 °FClear.5 mph70%29.85 "Hg10 mi
12:53 AM63 °FClear.5 mph68%29.86 "Hg10 mi
11:53 PM
Tue, Jun 28
63 °FClear.3 mph68%29.86 "Hg10 mi
10:53 PM73 °FClear.7 mph40%29.86 "Hg10 mi
9:53 PM77 °FClear.7 mph33%29.86 "Hg10 mi
8:53 PM80 °FSunny.6 mph31%29.85 "Hg10 mi
7:53 PM88 °FSunny.7 mph22%29.84 "Hg10 mi
6:53 PM90 °FSunny.8 mph18%29.83 "Hg10 mi
5:53 PM93 °FSunny.12 mph18%29.83 "Hg10 mi
4:53 PM97 °FSunny.15 mph16%29.83 "Hg10 mi
3:53 PM98 °FSunny.13 mph18%29.85 "Hg10 mi
2:53 PM97 °FSunny.15 mph17%29.87 "Hg10 mi
1:53 PM94 °FSunny.15 mph21%29.88 "Hg10 mi
12:53 PM91 °FSunny.13 mph23%29.90 "Hg10 mi
11:53 AM88 °FSunny.8 mph28%29.91 "Hg10 mi
10:53 AM82 °FSunny.9 mph33%29.92 "Hg10 mi
9:53 AM77 °FSunny.6 mph44%29.93 "Hg10 mi
8:53 AM72 °FSunny.3 mph52%29.93 "Hg10 mi
7:53 AM67 °FSunny.3 mph61%29.93 "Hg10 mi
6:53 AM63 °FSunny.5 mph75%29.92 "Hg8 mi
5:53 AM62 °FClear.No wind73%29.91 "Hg9 mi
Weather by CustomWeather, © 2016

See weather overviewHow to use our weather pages